This is the latest recevied weather packets stored in our database for station/object W6TKD-13. If no packets are shown the sender has not sent any weather packets the latest 10 day(s).
| Time | Temp. | Humidity | Pressure | Rain* | Wind** | Luminosity | Snow |
|---|---|---|---|---|---|---|---|
| 1777524423 | 14.44° C | 45% | 1016.2 hPa | 0 mm | - | - | - |
| 1777523756 | 15° C | 45% | 1016 hPa | 0 mm | - | - | - |
| 1777523088 | 15.56° C | 45% | 1016 hPa | 0 mm | - | - | - |
| 1777522422 | 16.11° C | 44% | 1016 hPa | 0 mm | - | - | - |
| 1777521755 | 16.11° C | 44% | 1015.9 hPa | 0 mm | - | - | - |
| 1777521088 | 16.67° C | 44% | 1015.8 hPa | 0 mm | - | - | - |
| 1777520421 | 17.22° C | 44% | 1015.6 hPa | 0 mm | - | - | - |
| 1777519754 | 17.78° C | 43% | 1015.6 hPa | 0 mm | - | - | - |
| 1777519086 | 18.33° C | 43% | 1015.4 hPa | 0 mm | - | - | - |
| 1777518419 | 18.89° C | 43% | 1015.5 hPa | 0 mm | - | - | - |
| 1777517752 | 18.89° C | 42% | 1015.3 hPa | 0 mm | - | - | - |
| 1777517086 | 19.44° C | 42% | 1015.1 hPa | 0 mm | - | - | - |
| 1777516418 | 20° C | 42% | 1015.1 hPa | 0 mm | - | - | - |
| 1777515751 | 20.56° C | 42% | 1015.1 hPa | 0 mm | - | - | - |
| 1777515084 | 20.56° C | 41% | 1014.9 hPa | 0 mm | - | - | - |
| 1777514418 | 21.11° C | 41% | 1015 hPa | 0 mm | - | - | - |
| 1777513751 | 21.67° C | 41% | 1014.9 hPa | 0 mm | - | - | - |
| 1777512416 | 22.22° C | 40% | 1015.1 hPa | 0 mm | - | - | - |
| 1777511749 | 22.78° C | 40% | 1015.1 hPa | 0 mm | - | - | - |
| 1777511628 | 23.33° C | 39% | 1015.2 hPa | 0 mm | - | - | - |
| 1777511084 | 23.33° C | 39% | 1015.2 hPa | 0 mm | - | - | - |
| 1777510416 | 23.89° C | 38% | 1015.3 hPa | 0 mm | - | - | - |
| 1777509748 | 24.44° C | 38% | 1015.2 hPa | 0 mm | - | - | - |
| 1777509082 | 25.56° C | 37% | 1015.4 hPa | 0 mm | - | - | - |
| 1777508416 | 26.67° C | 36% | 1015.3 hPa | 0 mm | - | - | - |
* Rain since midnight (hover to see other rain measurements)
** Current wind speed in m/s (hover to see current wind gust speed)